Theta_e
343 341 338 335 332 332 332 340 343 340 342 341 342 342 342 341 338 337 336 337 337 339 342 342 341 335 326 327 333 336 334 327 328 335 337 336 335 336 339 339 339 339 340 342 340 340 340 337 329 322 321 319 317 315 314 314 314 315 320 325 327 328 329 329 329 325 321 319 319 319 319 319 319 319 319 322 326 331 334 333 334 334 333 334 332
343 341 337 335 332 332 331 340 340 337 339 339 341 341 340 338 338 338 338 337 337 341 342 341 340 331 327 332 336 338 334 328 332 337 336 336 336 336 337 337 338 338 340 341 339 339 339 335 327 321 320 317 316 315 315 314 315 318 323 328 330 331 331 332 333 332 328 324 322 322 322 322 322 322 322 322 325 330 335 335 335 334 334 333 331
341 339 337 335 332 331 331 338 339 336 337 338 339 338 338 337 339 339 338 337 338 342 341 341 338 330 330 336 338 338 334 329 332 336 336 335 335 336 336 336 337 337 339 340 339 340 338 332 325 321 319 319 318 317 316 315 316 318 323 328 331 331 332 333 335 336 334 331 327 326 325 325 325 324 324 325 326 328 332 335 335 334 335 333 330
338 338 336 337 333 332 331 337 338 337 337 337 338 336 337 337 339 338 338 338 339 341 341 341 336 330 335 338 339 338 335 331 330 333 336 335 335 335 335 336 336 337 338 338 339 339 337 332 328 324 322 323 322 320 318 317 317 320 325 330 331 332 333 334 335 336 337 337 334 329 327 327 327 326 325 326 327 326 326 331 334 335 335 332 330
337 337 337 337 334 332 331 336 339 337 337 335 336 337 338 338 339 338 338 339 341 341 341 341 335 332 338 339 339 338 337 336 331 330 335 336 335 335 335 335 335 336 337 337 338 338 338 335 331 327 326 327 326 323 320 319 321 324 328 330 332 332 333 334 335 336 337 339 338 333 329 328 328 327 326 325 327 327 325 326 329 331 330 330 331
337 336 337 337 335 332 330 336 339 337 335 334 336 338 339 339 339 338 339 340 341 341 341 340 335 335 339 339 339 339 339 339 332 327 332 336 335 335 335 335 336 336 336 336 337 338 338 335 331 329 330 329 328 326 322 321 322 325 327 329 331 332 333 334 335 336 336 337 340 337 330 329 329 329 328 326 326 327 327 326 326 326 325 327 330
337 337 337 336 335 333 330 335 338 335 334 335 338 339 339 339 340 339 340 340 341 342 341 339 337 338 339 339 339 339 340 339 334 329 330 335 336 335 335 335 335 335 336 336 338 338 337 334 331 330 330 329 329 328 326 324 323 325 328 330 331 332 333 334 335 335 335 336 339 336 330 329 330 330 329 328 327 327 328 328 327 326 326 326 328
339 338 336 336 334 332 329 333 337 334 335 337 339 340 340 340 340 340 340 341 342 342 341 340 339 339 339 340 339 339 338 335 333 333 332 334 335 335 336 336 336 336 337 337 338 338 337 336 332 330 329 329 328 328 327 326 326 326 329 331 332 333 333 334 334 334 335 335 335 333 329 330 330 330 331 330 329 329 329 330 329 328 328 328 327
342 339 336 335 333 332 328 331 336 335 338 339 339 341 341 341 340 341 341 340 342 342 341 340 340 340 340 340 339 338 337 333 332 333 333 334 335 336 336 337 337 337 338 337 338 338 337 334 331 330 329 329 328 327 326 326 327 327 329 331 332 333 334 334 334 334 335 335 334 332 331 330 330 331 331 331 331 330 331 330 330 330 330 329 328
343 340 336 334 333 332 328 330 336 338 340 341 341 342 342 342 341 341 341 341 342 342 342 341 341 341 340 340 340 338 337 335 334 331 330 334 336 337 338 338 338 338 338 338 338 336 334 331 331 331 329 329 328 327 326 326 325 326 328 331 333 334 334 334 334 334 335 336 333 333 332 330 330 331 332 332 332 331 331 331 330 330 330 330 329
343 341 336 333 333 331 328 330 336 340 342 342 342 343 343 343 341 342 342 342 342 343 343 342 342 342 341 340 339 339 338 337 336 332 328 332 336 337 338 338 339 338 338 337 336 333 331 330 331 330 330 329 328 328 327 326 325 325 327 330 333 333 334 333 333 334 335 336 333 333 332 331 331 331 332 332 332 332 331 331 331 330 330 330 330
343 341 335 333 333 331 328 329 336 341 342 342 342 342 342 343 342 342 342 343 342 342 343 342 342 341 341 340 340 339 339 337 335 332 328 332 336 337 337 338 338 337 337 336 336 333 330 330 330 330 330 330 329 329 328 327 327 326 327 329 330 331 331 330 332 334 333 333 333 333 332 332 331 331 331 332 332 332 332 331 331 331 331 330 330
342 339 333 332 332 332 328 328 336 341 342 342 342 342 342 342 342 342 342 342 342 342 342 342 341 341 340 339 340 339 337 337 336 332 328 332 336 337 337 337 337 336 336 336 335 333 331 330 330 330 330 330 330 329 329 328 326 325 325 325 327 327 325 328 333 333 332 333 333 334 333 332 331 331 331 331 332 332 332 332 331 332 332 332 332
341 338 333 332 332 332 328 328 337 341 342 342 342 342 342 342 342 342 342 342 342 342 342 341 341 340 340 339 339 338 336 336 336 333 328 332 336 337 337 336 337 337 336 336 334 332 330 330 330 330 330 330 330 329 328 327 326 324 322 321 322 321 322 329 334 334 334 334 334 334 333 332 331 332 331 331 331 331 332 331 331 332 333 333 333
341 337 334 332 332 331 329 333 339 341 341 341 342 342 342 343 342 342 342 342 341 341 341 340 340 339 338 337 336 335 335 334 335 333 329 332 336 336 337 337 337 337 336 335 332 331 331 330 330 330 330 330 329 329 328 326 325 323 321 318 318 320 325 332 334 335 336 335 335 335 333 332 332 332 331 331 331 331 332 331 331 332 333 333 333
341 338 334 331 331 331 333 338 340 341 341 341 342 342 342 342 341 341 340 341 340 339 338 336 336 336 335 333 332 331 331 331 331 332 331 332 335 335 337 337 337 337 335 334 333 332 331 330 330 330 330 329 329 329 327 326 324 322 319 316 319 323 329 334 334 336 337 336 336 334 332 331 332 332 332 332 331 331 331 331 331 332 333 333 334
340 338 335 331 331 332 336 340 340 340 341 341 342 342 342 342 340 340 340 340 338 336 333 331 331 331 329 326 325 323 324 324 323 329 333 333 334 334 335 336 336 336 335 334 333 332 331 331 330 329 330 329 329 328 326 324 322 320 317 318 323 328 333 334 334 336 337 336 334 333 332 331 331 331 331 332 331 331 331 331 331 331 332 333 334
340 338 334 331 331 334 338 340 340 341 341 342 342 342 341 341 340 340 340 337 334 332 331 330 328 325 321 318 317 315 314 316 318 326 334 334 333 332 333 335 335 335 334 333 333 332 331 331 330 330 329 329 328 326 325 324 322 320 318 322 327 330 334 335 336 337 336 336 334 333 332 332 332 332 332 332 332 332 331 332 332 331 332 334 335
339 337 332 331 333 336 339 340 341 341 342 342 342 341 341 339 339 340 338 334 331 331 329 324 318 314 312 309 309 310 309 310 313 323 332 334 331 329 330 333 333 333 334 332 331 331 331 330 330 329 328 327 326 325 325 324 322 321 321 325 329 331 334 336 337 337 336 336 334 333 332 332 332 332 332 332 332 332 332 332 332 333 334 335 336
339 335 331 332 334 337 340 341 341 341 342 342 341 341 340 339 339 338 334 331 331 330 322 313 309 307 308 310 310 308 307 309 312 317 327 331 328 326 327 329 330 332 331 330 330 330 329 328 327 326 325 325 325 325 324 324 324 323 324 328 330 332 335 337 338 338 337 335 333 333 333 333 333 333 333 333 333 333 332 333 333 335 336 336 336
338 335 333 333 335 338 340 341 342 342 341 341 340 340 340 340 339 335 332 332 331 324 314 307 307 308 313 322 325 321 314 311 313 316 321 324 323 323 324 324 326 327 327 326 326 325 324 323 322 321 322 323 323 322 321 324 326 325 326 329 331 333 336 337 338 337 337 335 333 334 333 333 334 334 336 336 337 335 334 334 335 337 336 336 335
338 338 337 335 338 340 341 342 342 342 341 341 340 340 341 340 338 333 332 332 327 316 310 313 317 318 325 333 336 335 329 320 314 315 318 319 320 322 323 322 323 322 322 322 321 321 321 320 320 321 321 322 322 320 321 326 329 328 328 329 332 335 336 337 338 337 336 335 334 334 334 335 335 336 337 337 338 336 335 336 337 337 336 335 335
339 340 339 338 340 340 341 343 343 342 342 341 340 340 341 339 336 333 333 330 321 312 312 323 330 332 335 336 338 339 337 333 323 318 318 319 320 321 322 323 323 323 322 322 322 323 323 322 322 322 322 322 321 321 325 330 333 334 332 330 332 335 335 337 337 336 337 335 334 335 334 335 336 336 337 337 337 336 336 337 337 336 335 335 335
341 340 339 339 340 341 342 343 344 343 342 342 341 340 340 338 335 334 333 326 316 313 316 326 333 336 337 338 340 340 338 338 335 329 321 318 321 322 323 324 325 325 324 324 324 324 324 323 323 321 322 320 320 325 330 333 333 336 335 332 334 335 337 338 337 337 336 335 335 335 335 335 337 337 337 337 337 337 336 336 336 335 335 335 335
342 340 340 339 340 341 342 344 345 344 343 342 342 340 339 337 334 335 331 320 314 316 323 331 335 337 338 339 340 340 338 338 339 337 326 317 318 320 322 323 324 324 323 323 322 325 329 330 329 327 327 325 324 330 334 335 335 335 336 335 335 336 338 339 338 337 336 335 335 335 334 335 337 337 337 337 336 336 336 335 335 334 334 334 334
343 341 340 340 339 340 342 345 344 344 344 343 343 340 337 336 336 336 327 319 320 325 332 336 335 336 339 340 340 340 339 339 340 338 332 324 320 319 320 321 322 323 325 325 323 328 337 338 337 335 334 333 332 334 335 336 336 336 336 335 334 336 338 338 338 337 334 334 334 334 334 334 335 336 337 337 336 336 335 335 334 333 333 333 332
343 341 340 340 338 340 343 344 344 345 345 345 344 339 337 339 340 338 329 328 331 333 336 337 336 337 339 340 340 340 340 340 339 337 337 335 328 325 325 323 324 328 332 334 331 332 338 339 338 337 336 336 336 336 336 336 336 335 335 334 334 337 338 337 337 334 331 332 332 332 332 333 334 335 336 335 335 335 334 334 333 332 331 331 331
343 341 340 339 339 341 343 344 344 345 345 345 343 338 340 342 341 340 336 336 336 334 336 337 338 338 339 339 339 341 340 339 338 338 339 339 336 335 334 332 332 335 337 338 337 336 338 338 338 337 336 336 336 337 337 336 335 335 335 333 335 338 338 337 337 332 329 329 328 329 329 331 332 333 334 334 333 333 332 332 331 331 329 329 329
342 341 339 339 340 342 343 343 344 345 345 345 344 341 342 343 341 340 338 339 337 335 337 337 338 338 338 340 340 341 340 340 340 340 340 340 339 338 338 337 337 338 338 338 338 338 338 338 338 337 336 336 336 337 336 334 334 334 334 334 335 338 338 338 335 331 329 327 326 326 326 326 328 328 329 330 329 329 328 328 329 329 329 328 328
341 340 339 340 341 341 343 343 343 344 344 345 345 343 343 343 341 340 339 340 338 336 337 337 338 338 337 340 341 341 341 341 340 340 339 339 339 338 338 338 337 337 338 338 338 338 338 338 338 337 336 335 335 336 335 334 334 334 334 334 336 338 338 337 335 331 328 326 325 324 323 323 323 323 323 324 324 324 323 322 322 324 325 326 325
340 340 339 339 341 342 342 343 343 344 345 345 345 343 343 342 341 340 339 339 337 335 337 337 338 339 339 340 341 341 340 340 340 339 339 339 339 338 337 338 337 337 337 337 337 337 336 337 337 336 336 335 334 335 335 333 332 333 333 333 334 337 338 336 334 331 328 325 324 322 321 321 320 320 319 318 316 315 315 313 311 314 319 322 321
340 339 338 338 340 342 343 342 343 343 344 345 345 343 342 342 340 340 338 336 337 336 337 337 338 340 340 340 341 340 340 340 339 339 339 339 339 338 337 337 337 337 337 337 337 337 336 336 336 336 336 336 334 335 335 333 331 331 331 331 331 333 335 335 334 331 328 325 323 322 321 320 319 318 317 315 311 306 305 305 303 303 308 315 316
339 338 338 338 338 341 343 342 343 343 343 344 344 343 342 341 340 340 338 335 337 337 337 338 338 340 340 340 341 340 340 340 340 340 339 338 337 338 337 337 337 337 336 337 337 337 336 336 336 336 335 334 334 334 334 332 331 330 329 329 329 329 331 332 333 331 329 326 323 321 320 318 316 315 314 313 309 303 302 304 304 301 299 303 310
339 338 338 339 337 339 342 342 343 343 343 343 343 342 341 341 340 340 338 335 337 338 337 338 339 339 340 341 340 340 340 339 340 339 339 338 337 337 337 337 338 337 336 337 337 336 335 335 335 335 334 334 334 334 333 330 330 330 328 327 327 327 327 328 329 329 326 322 319 318 317 315 313 312 311 310 308 304 303 306 307 306 302 298 304
338 339 339 339 336 337 341 342 342 343 342 343 343 341 341 341 340 339 338 336 336 337 337 338 339 339 340 340 340 341 340 338 338 338 338 338 337 337 337 337 338 337 336 337 337 335 335 334 334 334 335 335 334 333 332 329 329 328 326 326 325 324 324 323 323 323 321 318 316 314 313 312 311 310 309 307 306 305 305 308 307 307 306 302 300
338 339 340 338 335 337 341 342 342 343 342 343 342 341 341 341 340 339 338 336 336 337 338 338 339 339 340 340 340 341 340 337 337 338 337 337 337 337 337 337 337 337 336 336 336 335 335 335 334 335 336 336 334 331 330 329 328 326 324 324 323 322 321 320 318 317 317 316 314 312 311 311 310 309 307 305 305 306 306 307 308 307 307 305 303
339 339 339 338 335 337 341 342 342 342 341 343 342 341 342 341 340 339 338 337 338 339 338 338 339 339 339 340 340 341 339 337 337 337 337 337 337 337 337 337 336 336 336 335 335 335 335 335 335 335 335 335 333 330 329 328 327 325 323 322 321 320 319 318 317 315 314 314 312 310 310 309 309 308 306 304 304 305 306 306 306 307 307 306 305
341 340 339 337 336 338 342 342 341 341 341 342 342 341 342 340 340 339 339 338 339 339 339 338 339 339 339 339 340 340 338 338 338 337 337 337 338 337 337 337 336 336 335 334 334 333 334 335 335 334 334 334 332 329 327 326 325 323 322 320 319 318 317 317 316 315 313 312 310 309 309 308 308 308 306 303 303 303 305 306 306 306 306 306 306
341 341 339 337 337 339 341 341 341 341 341 342 342 342 341 340 340 340 338 338 339 339 339 339 339 339 339 340 340 339 337 338 338 337 337 338 337 337 336 336 336 335 335 335 334 333 332 333 334 333 332 332 332 329 326 325 324 323 321 318 317 316 315 315 314 313 312 311 310 310 309 308 307 307 306 305 304 304 303 302 304 305 306 306 306
342 341 340 337 338 340 341 342 342 341 341 342 342 342 341 340 340 339 338 338 339 339 339 339 339 339 339 339 340 339 338 337 337 337 337 337 337 336 335 335 335 335 335 334 334 333 333 333 333 332 331 331 331 328 326 326 324 321 320 318 316 315 313 312 311 311 311 310 310 310 309 309 308 307 306 306 305 305 302 298 300 303 305 307 307
342 341 340 337 338 341 340 341 342 341 341 342 342 342 341 340 340 340 339 339 340 340 339 339 339 339 339 340 339 338 337 337 336 336 336 336 335 335 334 333 333 333 333 333 333 333 332 332 331 331 331 330 328 326 326 326 323 320 319 318 316 314 313 311 310 310 309 309 308 308 308 307 307 307 306 306 305 305 303 299 299 299 301 304 304
343 341 340 337 338 340 341 341 341 342 342 342 343 342 341 340 340 340 339 339 340 340 340 340 340 340 339 339 338 337 336 336 336 335 335 334 334 334 333 332 332 331 331 331 330 330 330 330 330 329 330 330 327 325 325 325 324 321 318 317 316 314 312 310 310 309 309 308 308 307 307 307 307 307 306 306 305 305 304 304 303 301 300 300 300
343 341 340 338 339 340 341 341 341 343 343 342 342 341 341 340 340 339 339 340 340 340 340 340 340 339 338 338 337 337 336 335 335 334 333 333 333 333 332 331 331 330 329 329 329 329 328 330 329 328 330 330 328 325 326 327 325 321 319 320 319 317 315 311 309 308 308 308 309 309 308 306 306 306 306 306 305 305 306 306 306 304 302 302 301
343 342 340 339 340 340 341 341 342 343 343 343 342 341 341 340 340 339 339 340 340 340 340 340 340 339 337 337 336 336 335 334 334 333 333 333 332 331 330 329 329 329 328 329 329 329 328 329 329 328 327 329 328 327 328 329 326 322 323 324 321 321 323 316 308 307 307 306 307 308 308 306 305 305 305 304 304 305 305 306 306 304 304 304 302
343 343 341 340 341 341 341 341 342 343 343 342 342 341 341 340 339 339 339 339 339 340 339 339 338 337 336 336 335 334 334 333 333 333 332 332 331 330 329 328 328 327 327 328 328 328 328 328 328 327 325 326 327 326 327 328 327 324 325 327 324 326 327 316 310 309 307 306 305 305 307 306 305 305 304 303 304 303 302 304 305 304 304 304 302
343 343 341 340 341 341 341 342 343 343 342 342 342 341 341 340 339 339 338 338 338 338 338 337 337 336 336 335 333 333 333 332 331 331 330 330 330 329 328 328 327 326 326 326 327 326 327 327 327 326 325 324 325 325 324 324 324 323 323 324 325 326 320 312 315 315 309 307 306 305 304 303 304 305 304 304 304 303 301 302 304 304 304 304 302
343 343 342 341 341 342 341 342 342 342 342 342 341 341 340 340 340 339 338 337 337 337 337 336 336 335 335 333 332 332 331 331 330 329 329 328 328 327 327 325 325 325 325 326 326 325 325 325 325 324 322 321 320 319 319 320 321 319 317 316 318 321 317 312 317 316 311 310 307 306 304 302 305 305 305 305 304 302 301 301 303 303 303 303 302
343 343 342 341 341 342 342 342 343 342 342 341 341 341 340 340 339 338 337 337 336 336 336 335 335 334 333 332 331 330 330 329 329 328 327 327 325 325 324 323 322 324 325 325 325 324 323 322 322 322 320 318 315 312 313 315 316 314 312 312 313 316 315 313 315 315 316 316 311 308 305 304 305 303 303 305 303 302 301 301 302 303 303 302 302
344 343 343 342 342 342 343 343 343 342 342 341 341 340 340 339 338 337 337 337 336 336 335 334 334 333 332 331 330 329 329 329 328 327 326 325 324 323 322 321 321 323 324 323 323 322 322 321 321 321 318 315 313 311 312 313 312 312 311 311 311 313 311 311 313 312 315 319 316 311 307 306 306 304 302 304 303 302 302 302 303 303 303 303 302
344 343 343 343 343 343 343 343 342 342 342 341 340 339 339 339 338 337 337 336 336 336 335 334 333 332 331 330 329 329 328 327 326 325 324 324 323 321 320 320 320 321 322 322 321 320 320 320 320 320 317 315 313 313 313 313 313 313 312 311 312 312 311 310 311 311 311 314 316 312 308 307 309 308 307 307 305 304 303 303 303 304 304 303 302
344 344 344 343 344 343 343 343 342 342 341 340 340 338 338 338 338 337 337 336 336 335 334 333 332 331 330 329 329 328 327 326 325 324 324 323 321 320 319 318 318 319 319 319 318 317 316 316 317 317 316 315 314 313 313 313 312 312 312 312 311 310 310 310 309 310 309 310 314 313 309 308 309 309 310 310 306 305 305 304 303 304 304 303 302
Wind_Speed
23 24 25 22 20 19 19 20 20 19 18 17 16 15 14 14 14 14 14 13 13 14 14 14 13 13 13 13 13 14 15 15 15 15 14 14 14 14 14 13 14 15 14 13 14 15 15 13 14 16 17 19 20 20 21 22 24 24 24 24 23 23 23 23 24 24 24 23 22 20 20 18 18 17 17 17 17 17 15 17 19 18 17 16 16
24 25 25 23 21 20 20 20 20 19 18 17 17 16 15 15 15 15 14 13 13 13 14 14 13 13 13 13 13 14 15 15 15 15 14 14 15 14 14 13 14 14 13 13 13 14 13 11 13 16 19 20 21 21 21 22 23 23 22 21 21 21 20 20 20 21 22 23 21 19 19 17 17 17 18 18 19 19 17 18 17 16 17 16 16
27 26 25 23 21 20 20 20 20 19 18 18 18 18 17 17 16 15 14 14 13 13 13 13 13 13 13 13 12 13 15 16 15 15 15 15 15 15 14 14 14 13 12 13 13 13 12 11 14 18 20 20 21 21 21 21 21 21 20 20 20 19 17 17 17 17 18 20 20 18 18 17 17 16 17 18 19 19 18 17 16 17 16 16 16
30 28 26 23 21 20 20 21 20 19 20 19 19 19 18 17 16 15 15 14 13 13 13 13 12 13 13 12 13 13 15 16 16 15 15 15 15 16 16 15 14 13 13 13 11 11 11 12 15 17 18 19 20 20 21 21 20 20 20 20 18 17 15 14 13 12 13 14 15 17 17 17 17 16 16 16 18 19 17 16 15 16 14 14 17
31 29 26 24 21 20 20 22 21 20 20 20 20 19 18 17 16 15 15 14 13 13 13 13 12 12 12 12 12 13 15 15 16 15 14 14 14 15 16 15 15 14 13 12 10 11 12 12 14 15 16 17 17 18 19 19 20 20 19 18 16 14 12 11 10 10 10 9 11 13 14 15 17 16 16 16 17 18 17 16 14 14 14 15 17
31 29 27 24 22 20 21 22 21 20 20 20 20 19 18 17 17 16 15 14 13 13 13 12 12 11 11 12 12 13 14 14 15 15 15 15 14 14 15 15 14 14 13 12 11 12 11 12 14 14 14 14 14 15 16 17 17 17 16 15 14 13 11 10 10 10 9 8 8 9 10 13 16 15 15 15 16 16 17 17 16 15 16 18 18
31 30 27 25 23 20 21 22 21 20 20 20 19 19 18 17 17 16 15 14 13 13 13 12 12 11 11 11 12 13 14 12 13 16 16 16 15 13 14 14 14 14 13 12 11 11 11 11 13 13 13 13 13 13 14 14 14 14 14 13 12 11 10 9 10 10 11 10 9 10 10 12 15 15 15 14 15 15 15 16 17 17 17 18 18
29 28 27 25 23 21 21 22 21 20 20 19 19 18 17 17 16 16 15 14 13 13 12 12 11 11 10 11 12 12 12 12 12 14 15 15 16 14 13 14 14 14 13 12 11 10 10 10 11 12 12 12 12 12 12 12 13 12 12 11 10 9 9 8 9 10 13 12 13 12 12 12 14 14 14 13 14 14 14 14 16 17 17 17 18
27 25 27 26 23 21 20 22 22 20 19 18 18 18 17 16 16 15 15 14 13 13 12 12 11 11 11 11 11 11 11 11 11 12 12 13 14 14 14 14 14 13 13 11 10 9 8 9 10 11 12 12 12 12 12 12 12 11 10 9 8 8 7 7 8 8 11 11 13 11 11 11 13 13 13 12 12 12 12 13 14 15 15 16 16
25 24 26 26 24 21 20 22 22 19 17 17 17 16 16 15 16 15 14 14 13 13 12 12 11 11 11 11 11 10 10 10 10 10 11 12 13 13 14 13 12 12 11 10 9 9 9 9 10 10 11 11 11 11 11 11 11 10 9 8 7 6 6 7 9 7 9 9 11 10 9 10 13 12 11 11 11 11 11 11 12 12 13 14 15
23 23 25 26 24 21 21 22 22 19 17 17 16 16 16 15 15 15 14 13 13 13 12 12 12 11 10 11 10 10 9 9 9 9 9 12 13 12 12 12 11 11 10 8 8 8 9 10 10 10 10 10 10 10 10 10 10 9 8 6 5 5 6 10 12 11 11 6 10 8 9 10 12 11 10 10 10 10 10 10 11 11 11 12 12
22 22 25 25 24 22 21 22 22 19 17 17 16 16 15 15 15 14 14 13 13 13 12 12 12 11 10 10 10 9 8 7 7 8 9 12 12 11 11 11 10 11 9 7 6 6 9 11 10 9 9 9 9 9 9 9 8 8 6 5 4 6 8 12 15 16 12 8 11 8 9 10 11 10 9 9 10 10 10 10 10 10 10 10 11
22 22 25 24 23 22 21 23 22 19 18 17 17 16 15 15 15 14 14 13 13 13 12 12 12 11 10 10 9 8 6 6 6 7 9 12 11 10 10 10 10 10 9 8 6 7 9 10 10 9 8 8 8 8 8 8 8 7 6 5 5 8 10 13 18 18 11 12 10 8 9 10 10 9 8 8 9 10 10 11 11 10 9 10 10
23 24 25 23 23 22 21 23 22 20 18 17 17 17 16 16 15 15 14 14 13 13 13 12 11 11 10 9 8 7 6 6 5 6 8 11 11 10 10 9 9 9 8 7 6 8 9 9 9 8 8 7 7 7 8 8 7 7 6 6 7 10 12 13 17 16 12 10 9 8 8 10 9 8 8 8 9 9 10 11 12 11 11 12 11
23 25 25 23 23 22 22 23 22 20 18 18 17 17 17 16 15 15 15 14 13 12 12 11 10 9 8 7 6 6 6 6 6 6 8 11 11 10 9 9 8 8 8 7 7 8 8 8 8 7 7 6 6 6 7 7 6 6 6 7 9 11 12 13 16 14 11 9 9 8 8 9 9 8 8 8 8 8 9 11 12 11 11 12 11
22 24 25 24 24 23 23 23 21 20 19 18 17 17 17 16 16 15 15 14 12 11 10 8 8 7 6 5 5 5 5 5 6 7 8 10 11 10 9 8 7 7 7 7 7 8 7 7 7 6 6 5 5 6 6 6 6 6 6 8 10 11 12 13 15 14 11 9 8 7 8 9 9 8 8 8 7 8 9 9 10 11 12 12 11
21 24 26 25 24 24 24 22 21 20 19 18 17 17 17 16 15 14 14 12 10 9 8 6 6 5 5 5 5 5 5 6 6 8 9 9 9 10 9 7 7 6 7 8 7 8 7 6 6 5 5 4 4 5 5 5 5 5 6 8 10 11 12 13 14 11 7 7 8 8 8 9 8 8 8 8 8 8 8 8 9 10 11 11 11
20 24 27 25 25 25 24 23 21 20 19 18 17 17 16 16 15 13 12 11 9 8 6 5 5 5 5 5 5 5 5 6 7 8 9 8 7 8 9 8 7 6 7 8 8 8 6 5 4 3 3 3 3 3 3 3 3 4 6 9 10 11 10 12 12 7 4 5 7 7 8 9 9 8 8 8 8 8 7 7 8 8 10 11 11
22 25 26 25 25 24 24 23 22 21 20 19 17 17 16 15 14 13 12 10 9 7 6 5 5 6 6 6 6 6 6 6 7 9 10 8 6 7 8 8 8 7 7 8 8 8 6 4 3 2 1 1 1 1 2 2 3 3 5 7 9 9 9 10 9 5 4 6 6 8 9 9 8 8 8 8 8 8 7 7 7 8 9 10 10
23 25 26 24 23 24 24 23 22 21 20 19 18 17 15 14 14 12 11 9 8 6 6 7 8 9 10 11 10 8 7 7 7 8 9 8 7 7 7 7 7 8 8 8 8 7 5 4 3 2 2 1 1 2 2 2 3 3 5 6 7 8 9 8 6 5 4 6 7 8 9 8 7 7 8 8 8 7 6 7 8 9 9 9 9
24 26 25 22 21 22 24 24 22 21 21 19 19 18 16 15 14 12 11 9 7 7 9 10 12 13 14 14 13 11 9 7 7 8 8 8 8 8 8 7 7 7 7 7 6 5 4 3 2 2 2 3 3 3 2 2 3 3 4 5 5 6 7 5 3 3 3 4 6 7 7 7 6 7 8 8 8 7 7 7 8 8 8 8 9
26 26 23 21 21 22 23 23 22 21 21 19 19 18 17 15 14 13 11 9 9 10 12 14 14 14 13 12 12 11 10 8 7 8 8 8 8 8 8 8 7 6 5 5 4 3 2 2 2 2 3 4 4 3 2 3 3 3 4 4 4 5 5 1 1 0 1 3 5 6 6 6 7 8 8 8 8 7 8 8 8 8 8 9 9
26 26 24 23 23 22 21 22 21 21 21 20 19 19 18 16 15 13 11 10 11 13 15 15 15 14 12 10 9 8 9 8 7 8 7 7 7 7 7 7 6 5 4 4 3 2 1 2 3 4 5 5 5 4 4 5 4 4 5 3 3 4 2 4 3 1 1 3 5 5 5 7 8 9 9 9 9 9 9 9 9 9 10 10 11
26 27 25 24 24 23 21 22 22 22 21 20 20 19 18 16 14 12 11 10 13 16 15 14 14 13 10 9 6 6 7 6 6 6 6 6 6 6 6 5 5 4 3 2 1 1 3 4 5 6 6 6 6 5 5 6 6 8 8 4 2 1 5 6 3 1 1 4 6 5 5 7 9 10 10 10 10 10 11 10 11 12 12 12 12
26 27 25 26 25 24 24 24 23 22 21 21 20 20 19 17 14 12 11 12 14 17 14 12 12 10 9 9 6 7 7 5 5 4 3 5 6 6 5 5 4 3 3 2 1 2 4 5 7 7 6 6 6 5 7 9 9 10 8 4 1 4 8 6 3 1 2 5 6 6 6 7 9 11 11 11 12 11 12 12 12 13 12 13 13
26 26 26 27 25 25 27 26 25 22 21 21 19 19 19 16 14 11 12 14 15 16 13 11 10 7 7 10 9 8 7 7 8 6 3 4 6 6 6 6 5 4 3 3 2 3 4 6 8 8 6 7 7 6 7 8 8 7 6 4 3 9 9 6 3 3 5 7 8 7 7 7 7 9 11 12 12 12 13 13 13 13 12 12 13
26 26 27 27 25 26 27 26 25 23 22 20 18 20 19 16 14 12 14 16 15 14 11 9 9 9 10 11 10 9 9 10 12 9 6 6 5 6 6 6 6 5 4 4 4 5 6 8 10 9 9 9 8 6 5 5 6 4 2 2 6 12 9 5 4 7 9 9 9 9 8 7 5 5 6 8 9 10 12 12 12 12 11 11 10
26 25 26 27 25 27 28 27 24 23 24 21 19 21 20 17 15 13 14 15 15 13 10 10 11 12 11 9 10 11 11 12 12 10 9 8 8 7 7 7 7 7 7 8 7 6 7 7 7 6 7 7 6 4 2 4 6 2 2 3 9 14 10 6 6 8 9 10 11 10 9 8 6 4 3 4 4 5 6 7 9 10 10 11 10
27 24 25 25 26 29 28 27 25 24 25 23 20 20 20 19 17 15 15 14 15 14 11 13 13 12 10 9 9 11 12 11 10 10 9 10 10 10 10 10 9 9 10 10 8 7 5 4 3 3 4 5 3 1 1 3 4 2 3 4 11 16 12 9 8 8 9 10 12 12 10 10 9 7 6 6 6 7 7 7 7 8 9 10 10
28 26 25 25 27 29 27 26 25 23 25 24 22 21 21 21 19 16 15 16 17 15 13 14 11 10 11 11 10 11 12 11 10 9 9 9 10 10 11 11 10 10 10 10 8 7 5 4 2 1 2 4 2 0 1 2 4 3 2 4 11 17 14 11 10 9 10 12 12 13 12 11 11 10 9 8 9 9 9 9 8 7 7 8 8
29 29 27 25 28 28 25 25 25 24 25 25 23 22 21 21 20 17 15 17 18 16 14 14 11 9 11 11 10 10 10 10 10 9 9 9 8 9 11 10 10 9 9 9 7 6 5 4 3 3 2 1 3 1 4 6 9 9 10 11 12 16 15 12 10 9 11 12 12 13 12 11 11 11 11 10 10 10 10 10 10 9 9 9 9
29 30 30 27 27 26 25 25 24 24 24 24 24 22 22 21 21 18 16 16 16 16 16 14 13 12 11 10 10 9 8 9 9 9 9 8 7 9 10 9 9 9 8 8 7 6 6 6 6 5 4 2 5 1 7 10 14 17 17 18 16 15 14 11 9 9 11 12 12 12 11 10 10 10 11 11 12 11 10 11 12 11 10 10 10
29 30 32 29 28 26 26 26 25 25 23 23 24 22 22 21 20 18 17 17 15 16 17 13 14 15 12 10 10 8 8 8 8 8 8 8 7 8 9 10 9 9 8 8 6 5 6 8 8 6 5 4 4 2 8 11 13 16 15 15 15 17 16 13 11 9 10 11 11 10 9 9 8 9 9 10 11 11 11 13 15 15 13 11 12
29 28 32 30 28 27 26 28 28 27 25 23 23 22 22 20 19 18 18 19 17 17 16 13 14 14 11 10 10 9 8 8 9 10 10 9 9 10 10 10 10 8 7 5 5 5 6 7 8 7 7 5 5 4 10 13 14 13 14 14 14 15 17 17 15 12 11 11 10 9 8 8 8 9 9 10 11 11 12 14 16 17 17 15 13
30 28 32 30 28 26 25 30 29 28 27 22 22 23 22 21 19 18 18 18 18 17 15 14 14 12 11 11 10 9 9 8 9 11 10 9 10 10 10 11 9 8 7 5 4 4 4 6 7 9 7 2 5 8 11 14 14 13 12 13 13 14 16 17 17 15 12 10 10 9 9 7 7 7 8 8 9 11 12 13 15 16 17 17 15
32 30 32 29 28 26 25 32 31 28 28 22 22 23 22 21 18 17 18 16 17 17 15 15 14 13 13 13 11 10 9 9 10 11 10 11 12 11 10 10 9 8 7 5 4 2 2 4 6 7 4 1 8 13 13 13 14 13 13 12 12 11 12 13 13 12 10 8 8 8 8 7 6 6 8 8 8 10 12 13 14 15 16 17 17
31 31 33 29 29 26 25 33 31 28 28 22 23 24 22 21 17 17 18 17 16 16 16 15 15 15 15 13 12 11 11 11 11 11 11 12 13 12 11 10 9 9 8 6 4 2 2 4 5 6 6 2 10 15 15 15 15 14 13 12 11 10 10 10 9 9 7 6 6 6 7 6 6 6 7 8 8 9 11 12 12 13 14 16 16
29 30 32 30 31 27 25 31 30 28 27 23 23 24 23 20 18 18 19 18 16 15 15 15 17 18 16 14 13 12 12 13 13 13 13 13 13 13 12 10 10 9 8 6 5 4 4 5 7 8 6 3 10 16 16 17 16 15 13 12 11 10 9 7 6 6 6 6 6 6 6 6 5 5 7 9 9 9 9 11 11 11 12 13 15
29 29 32 33 31 27 26 29 29 29 27 24 23 24 23 20 18 18 19 18 16 15 17 17 18 17 15 14 14 14 13 13 14 14 14 15 14 14 12 10 9 8 7 7 7 7 6 7 7 7 5 4 10 17 18 17 16 13 12 11 10 10 9 7 6 6 7 7 7 7 6 6 6 5 8 10 10 9 8 8 7 7 9 11 13
31 30 34 35 31 27 28 29 28 28 27 25 24 24 24 20 19 20 20 19 16 17 18 16 16 15 14 15 14 14 13 13 14 14 15 16 15 14 12 9 8 9 8 7 8 9 8 7 7 6 5 6 11 18 18 16 15 12 11 11 10 9 9 8 7 7 7 6 7 7 6 6 6 6 7 8 7 9 9 8 6 5 5 6 8
31 32 35 35 30 28 30 30 27 27 28 28 26 27 26 22 22 22 22 21 17 18 18 15 15 15 15 15 15 15 13 13 15 14 14 15 14 12 10 8 8 8 8 8 6 8 8 6 6 7 6 8 14 19 18 16 15 13 10 9 9 9 8 8 7 6 5 4 5 5 5 4 5 6 6 5 5 7 8 9 9 8 6 5 4
31 34 35 35 31 28 29 29 28 28 29 29 28 28 28 25 24 23 23 21 18 19 18 17 17 15 15 16 16 16 14 13 15 15 15 14 12 10 9 9 8 7 7 7 6 6 9 8 7 8 8 10 16 19 18 13 11 12 12 9 7 6 6 7 7 6 6 5 5 5 5 4 4 5 5 3 4 6 8 8 10 11 10 10 8
32 34 35 35 33 30 28 28 29 29 29 30 29 29 28 27 24 23 23 22 20 20 19 19 18 16 17 17 17 17 15 15 15 14 15 14 12 11 10 9 9 8 7 7 6 6 9 9 8 9 9 12 15 17 14 8 8 14 14 7 3 3 3 3 5 5 5 6 6 6 6 5 4 5 4 2 3 5 6 7 9 10 10 12 13
32 33 35 35 33 31 30 29 29 29 30 30 30 28 27 25 23 22 22 22 21 22 21 20 19 18 20 20 18 17 16 15 13 12 13 12 12 10 9 9 10 10 9 8 8 7 8 8 9 10 10 12 14 13 9 6 10 14 8 3 4 4 1 3 5 4 3 5 5 7 7 5 5 5 4 2 2 3 3 4 7 10 10 12 14
33 34 36 36 32 32 32 30 29 29 30 31 30 27 26 24 23 22 22 23 23 24 23 22 21 21 22 22 20 18 16 14 12 11 11 10 10 8 7 8 8 9 8 7 8 9 9 8 8 9 10 11 13 12 8 6 11 14 7 3 5 2 2 6 7 4 4 4 3 5 6 4 6 6 3 0 2 3 4 3 3 7 9 10 14
35 36 37 36 33 32 32 30 30 29 29 31 31 28 27 27 27 26 27 27 25 26 27 25 23 22 23 22 20 19 18 15 13 12 10 9 9 9 8 6 6 8 8 7 9 10 10 9 9 9 8 10 13 14 11 8 10 12 7 4 4 2 6 10 6 2 3 4 3 4 3 4 7 6 3 1 4 5 5 3 3 4 6 8 12
35 36 35 35 34 32 31 31 30 30 29 31 31 30 29 28 28 28 29 29 26 25 26 25 23 21 22 22 20 19 18 15 13 12 10 8 8 10 9 5 6 9 8 9 11 10 10 11 10 9 9 10 12 13 13 11 10 8 5 4 5 5 9 10 6 3 3 3 5 5 3 4 6 5 3 2 4 5 5 3 1 2 3 6 10
35 35 35 36 34 32 32 31 30 30 30 31 31 31 31 28 27 27 28 28 27 25 24 23 21 20 21 21 19 19 17 14 12 11 9 7 7 11 9 5 8 11 10 12 12 11 11 12 11 11 11 11 10 11 13 11 10 9 8 7 7 7 9 8 6 6 4 3 4 5 5 5 4 5 5 4 2 4 6 5 4 3 4 6 10
36 36 36 36 34 33 32 31 31 31 31 31 30 31 31 28 27 27 26 26 26 24 23 21 21 22 22 22 20 19 16 13 11 10 9 8 9 12 10 8 10 13 13 13 13 12 12 11 11 11 11 12 13 14 14 10 10 11 9 9 9 10 10 9 7 6 4 3 3 4 7 7 5 6 6 4 1 3 5 5 4 2 3 6 9
36 36 35 34 33 33 32 31 32 31 31 32 30 30 31 29 27 27 26 26 25 25 24 23 24 25 24 23 21 18 16 15 14 11 10 10 11 13 12 11 12 13 13 13 12 12 13 12 12 12 12 14 15 15 14 12 12 11 10 10 10 10 8 8 8 8 7 5 3 2 7 10 7 6 8 6 2 1 3 3 2 2 3 5 7
33 34 34 34 34 33 32 32 32 32 31 32 31 30 29 29 29 28 27 27 27 28 28 27 27 27 25 23 21 19 18 18 16 12 11 12 13 14 13 11 11 12 12 12 12 12 13 13 13 13 13 14 14 14 14 13 13 13 12 12 13 12 11 10 10 10 9 6 4 1 3 7 8 6 6 7 5 2 3 3 4 5 4 3 6
Wind_Direction
144 144 143 146 144 140 136 132 131 135 135 137 132 129 126 121 117 115 118 118 119 115 109 108 103 97 93 86 78 73 68 64 73 83 83 82 92 103 106 106 104 102 104 99 96 97 100 106 110 114 115 111 108 107 106 108 108 105 101 96 93 91 89 87 84 81 80 77 76 75 75 74 74 77 77 78 77 75 70 64 62 62 61 56 54
147 144 145 146 144 142 138 133 134 139 138 138 134 133 130 124 122 120 124 124 123 117 112 111 104 101 95 86 78 75 70 68 76 83 83 85 89 95 101 106 107 104 101 97 97 97 99 106 107 109 110 108 106 106 107 110 111 107 101 96 93 92 90 89 87 85 82 78 75 71 71 69 65 67 69 69 69 68 68 65 58 57 60 57 57
145 144 145 144 145 142 139 136 136 140 138 138 136 136 132 128 127 126 128 127 126 119 115 112 105 104 97 87 81 79 75 73 78 85 87 88 92 96 100 103 107 107 98 96 100 97 96 102 103 105 106 107 107 106 107 110 111 108 102 96 93 91 90 89 88 86 84 81 74 67 66 65 59 57 62 64 66 67 69 69 59 57 60 55 56
145 144 145 144 145 142 140 137 137 139 137 137 137 136 133 132 131 131 130 129 128 121 120 115 109 107 97 88 86 86 81 75 76 86 91 91 94 97 102 104 106 109 104 100 100 95 90 95 100 101 103 104 105 105 107 110 111 109 103 99 96 91 87 84 83 82 83 82 77 66 60 62 58 52 56 61 65 66 67 71 66 62 60 52 56
144 144 145 144 144 142 141 139 138 139 138 138 137 136 134 134 133 133 133 132 130 126 125 116 113 108 98 93 92 91 84 77 75 84 97 97 98 99 103 107 109 111 111 106 99 95 91 93 98 99 100 101 103 104 107 110 111 109 103 99 95 91 84 78 72 68 72 78 85 71 56 61 58 50 51 57 63 64 64 67 69 66 60 56 58
144 145 146 145 145 143 143 141 140 141 140 140 138 136 135 135 134 135 137 136 132 130 126 119 116 108 100 100 98 94 89 84 76 85 103 105 102 105 107 109 112 112 113 110 103 99 95 97 100 100 99 99 100 102 106 109 111 108 102 99 96 92 84 75 64 57 52 54 90 87 67 65 55 50 52 55 60 62 63 64 66 63 58 57 57
143 144 147 147 146 144 145 143 142 143 142 141 138 137 136 137 137 138 140 137 134 132 128 124 119 110 105 105 103 99 97 93 82 87 104 109 105 107 111 111 113 113 114 112 106 102 99 99 102 104 102 101 101 101 105 106 108 106 100 98 95 89 81 72 60 55 48 57 110 109 85 68 51 53 55 55 61 63 64 64 62 60 57 55 54
141 144 149 148 147 145 146 146 144 145 143 142 139 138 139 139 140 141 141 140 136 134 132 128 121 115 112 107 106 106 101 97 92 92 102 110 108 109 113 113 115 116 117 115 108 103 100 103 107 110 108 108 106 105 105 104 105 103 99 94 90 87 77 66 59 59 54 77 124 110 84 65 49 56 57 57 61 62 63 63 62 60 58 56 52
139 145 150 149 149 147 147 147 145 146 144 142 141 140 140 141 142 142 143 143 139 136 135 131 124 121 116 110 111 110 104 100 98 98 107 115 114 116 118 117 120 123 124 123 117 112 112 115 115 113 111 112 111 111 109 107 106 103 98 90 89 81 64 49 43 49 52 86 128 105 78 61 51 59 59 57 57 58 59 59 61 61 59 57 54
140 148 153 151 149 149 148 148 147 147 144 142 141 140 141 142 142 142 143 142 140 138 135 131 126 123 119 115 116 111 107 106 101 99 111 122 122 122 123 123 124 126 127 128 129 127 125 122 119 115 113 113 112 113 112 110 109 105 101 95 93 69 45 27 19 24 35 78 123 98 73 58 53 58 58 52 49 51 50 53 57 58 58 57 55
144 152 155 152 150 149 148 149 149 146 144 143 142 142 143 143 143 142 142 141 140 138 135 133 128 126 122 119 117 112 110 109 103 99 115 131 130 129 129 127 127 129 133 133 134 131 128 125 120 116 113 112 110 110 109 109 108 105 102 97 89 55 28 14 9 7 13 73 126 95 73 58 52 56 54 46 41 42 39 44 48 50 52 52 52
148 153 155 153 151 149 149 152 151 147 145 145 144 145 146 145 144 143 142 142 140 139 138 135 132 132 128 127 125 120 115 107 103 102 119 134 131 135 137 136 137 138 141 135 130 132 133 128 121 119 116 112 109 107 104 103 101 99 97 89 70 34 17 11 17 17 23 119 135 88 73 57 52 54 47 40 36 36 34 35 35 40 44 45 45
145 150 153 152 152 150 151 154 152 148 147 148 148 147 148 148 146 145 145 144 142 142 141 138 137 137 137 138 135 130 125 115 112 107 123 135 130 133 140 143 145 140 141 140 138 139 134 127 122 123 119 116 111 105 101 96 90 88 83 68 43 23 16 19 32 42 71 125 119 76 67 52 52 50 40 35 31 29 27 28 27 28 31 34 37
143 147 151 152 153 153 155 155 152 149 149 151 152 151 150 150 149 148 148 147 145 146 143 142 142 146 150 148 142 136 134 128 121 114 128 137 130 132 141 144 145 143 145 148 146 141 135 125 124 126 121 119 110 102 96 89 83 76 65 50 36 24 20 28 42 62 94 104 87 74 61 50 51 43 33 25 22 23 22 24 27 27 25 26 28
142 146 151 153 155 156 157 155 152 150 153 155 154 153 153 153 152 152 151 151 150 150 149 150 152 155 160 157 154 146 143 139 131 126 132 138 136 136 140 144 148 150 153 152 146 142 138 128 126 128 124 119 105 96 90 83 76 63 51 42 37 29 25 35 48 69 96 93 82 70 53 50 46 36 24 14 14 17 18 21 26 30 28 24 23
143 147 151 155 157 157 156 155 152 153 156 156 156 155 157 158 156 156 156 156 155 154 155 156 156 162 171 171 169 162 158 157 148 139 135 141 143 144 145 148 152 154 160 154 148 148 143 134 130 129 124 116 101 90 79 70 61 48 41 39 36 32 34 45 55 70 91 90 75 60 50 48 39 30 16 8 6 9 16 18 25 31 30 26 23
145 149 153 157 159 157 155 154 153 155 157 157 158 160 162 163 160 160 158 156 155 154 156 158 163 174 184 181 175 172 169 170 162 145 140 143 145 151 151 150 159 167 169 159 152 154 149 143 137 132 125 110 95 82 70 57 42 35 38 41 35 33 46 57 59 65 82 71 56 53 49 43 34 25 13 5 2 4 13 16 23 28 24 23 24
148 154 156 158 160 158 155 154 156 156 157 160 162 165 166 166 163 162 157 155 155 155 159 163 173 178 180 175 168 165 165 169 163 148 144 147 148 154 152 152 167 174 172 163 156 158 158 156 152 144 130 107 93 77 56 36 16 24 37 38 30 32 53 60 56 62 77 57 47 51 51 43 33 23 13 8 5 4 10 16 20 21 15 15 18
149 155 155 158 159 158 156 155 158 158 159 164 166 167 168 168 166 163 159 157 156 158 160 159 158 154 150 143 140 142 147 156 157 152 150 152 156 156 156 159 167 171 170 165 161 164 169 171 174 170 149 120 89 40 353 349 351 15 31 29 22 27 44 45 53 83 72 51 51 56 54 43 35 28 19 16 17 13 14 16 16 18 14 12 11
149 154 154 159 159 158 160 158 161 162 165 167 168 169 170 171 167 165 162 158 160 157 147 139 133 124 121 115 110 113 122 140 148 153 155 157 155 145 145 153 158 162 165 165 168 173 178 187 201 217 233 255 288 303 311 335 353 12 17 15 14 27 41 42 69 101 66 51 57 59 55 47 39 30 24 23 26 25 23 19 17 18 13 9 6
150 152 154 159 160 163 164 162 164 167 170 170 171 171 170 172 169 167 163 161 159 146 133 126 123 119 116 108 98 96 96 112 132 145 153 152 146 137 135 141 149 156 163 168 173 181 186 199 218 245 273 289 296 302 308 323 347 6 5 1 3 33 53 58 93 92 55 55 61 63 57 49 40 31 29 27 29 31 30 29 24 19 13 11 11
152 155 159 161 162 170 168 166 169 171 173 172 173 172 171 173 172 170 165 164 153 138 129 121 120 119 117 108 97 95 90 87 107 127 138 142 138 137 134 135 141 143 150 155 161 176 182 211 254 280 291 297 297 306 313 315 324 337 346 342 349 39 68 116 197 173 59 66 69 72 62 50 40 35 36 35 38 41 39 39 33 27 27 28 28
156 161 165 166 167 172 172 170 172 175 175 175 176 176 175 175 175 172 167 163 148 138 131 122 117 114 108 103 97 97 94 78 89 111 122 135 133 136 136 130 136 134 136 139 149 176 228 268 286 294 295 298 305 318 310 307 308 316 326 301 320 34 124 199 210 215 67 79 84 76 62 56 49 46 48 51 53 54 54 51 48 48 47 47 45
160 164 167 169 172 174 174 174 177 177 177 178 179 179 178 177 176 172 167 160 148 142 136 127 121 113 105 100 94 105 110 85 87 102 105 133 141 142 142 138 149 150 149 157 181 271 294 298 303 297 300 302 302 314 309 305 301 300 300 267 285 62 172 191 196 212 83 93 86 67 57 63 63 63 64 64 62 63 63 59 58 59 56 54 50
161 165 170 172 176 179 178 177 179 178 178 181 183 182 179 176 176 173 166 156 149 148 140 132 129 124 115 109 114 126 128 115 125 133 102 130 146 153 157 159 168 175 191 220 257 299 305 309 311 299 302 306 298 304 303 299 290 284 272 245 236 161 175 187 188 167 96 93 75 56 53 67 75 73 70 70 67 67 65 60 60 62 61 58 53
162 168 173 177 180 182 180 178 180 180 178 183 185 182 178 174 173 168 164 155 149 148 141 137 142 154 150 137 142 148 153 156 160 173 165 137 144 159 172 181 188 193 212 236 239 273 292 299 305 299 296 299 296 290 289 283 267 261 243 238 193 165 180 192 157 89 86 88 74 58 54 63 78 78 76 76 73 69 67 63 59 59 60 56 52
166 174 177 180 183 182 181 179 181 181 179 185 186 179 175 169 164 163 163 156 151 148 146 149 156 170 173 163 162 168 175 171 170 182 185 172 166 172 182 191 198 200 216 237 229 244 262 274 288 291 284 283 279 265 264 253 246 249 203 217 170 163 176 179 120 87 88 87 79 66 61 64 69 79 77 77 74 69 67 63 55 52 51 43 37
170 178 180 184 186 182 181 182 182 180 181 184 182 177 174 168 165 170 171 162 157 154 159 169 168 171 172 172 174 175 184 183 181 190 193 193 193 195 207 206 210 217 224 235 229 228 241 254 273 283 273 266 256 239 241 234 247 277 111 146 160 166 172 159 123 100 94 87 84 74 66 65 63 63 45 39 46 53 57 53 44 37 34 34 29
173 179 185 188 185 180 181 184 184 182 182 181 179 179 176 174 176 177 181 182 170 161 170 178 177 184 183 179 185 185 193 198 196 203 200 198 201 209 220 218 221 225 223 231 228 217 210 210 242 278 264 253 241 216 282 202 204 187 127 137 160 167 172 161 136 117 103 91 89 82 73 68 63 59 46 35 30 31 34 37 41 31 22 27 30
177 181 188 186 178 178 183 185 186 184 181 179 181 181 178 180 185 182 188 194 178 165 173 180 179 188 188 188 196 196 200 205 207 210 200 197 202 207 212 211 212 211 211 216 212 200 174 159 185 235 263 270 286 83 51 107 139 166 141 131 163 164 163 159 141 124 108 98 94 88 79 68 61 57 52 45 37 34 34 37 45 46 35 28 23
179 181 187 182 173 176 183 185 185 182 180 181 183 182 182 183 186 188 188 186 177 172 175 176 175 179 187 193 202 204 206 205 201 198 191 189 194 197 199 200 198 194 198 198 190 185 156 127 144 145 140 273 292 24 82 83 97 119 122 117 145 159 164 161 140 125 109 99 95 90 80 66 57 53 49 44 40 37 37 40 41 48 52 42 27
179 179 183 180 176 178 181 184 183 182 182 183 182 182 184 184 186 188 183 175 171 175 173 170 174 178 187 195 198 202 204 201 196 192 191 191 188 189 190 190 191 187 185 184 182 175 150 142 152 163 154 169 269 303 101 105 103 112 115 109 112 127 150 159 139 126 111 98 89 83 74 65 56 46 42 38 38 38 42 47 44 45 51 51 41
176 177 179 179 182 182 180 184 182 181 183 180 181 182 183 184 186 185 181 175 166 166 169 168 172 178 188 194 191 192 194 196 197 195 194 191 184 185 185 184 185 181 178 181 180 170 163 163 160 169 158 151 247 230 119 120 114 112 110 109 106 103 118 136 136 127 112 97 87 78 66 60 54 45 38 34 36 42 49 51 47 43 44 50 51
172 173 176 177 183 185 184 185 181 181 182 180 183 184 182 184 186 185 184 183 177 167 165 167 171 177 184 186 190 195 194 190 194 197 191 187 183 182 186 186 184 181 179 174 162 160 162 167 173 167 143 147 234 194 125 121 122 122 114 113 111 104 110 120 126 124 111 98 88 81 69 58 52 47 40 35 39 47 52 50 45 40 39 43 50
173 172 175 178 184 189 189 185 182 182 181 182 186 184 182 183 184 183 180 182 182 172 167 170 173 179 181 181 192 197 190 185 191 194 189 189 185 177 179 180 179 180 175 152 125 134 150 166 176 161 136 143 205 164 136 126 122 123 120 117 114 111 111 112 117 118 113 108 97 88 80 67 55 48 41 38 39 46 51 48 43 37 34 36 42
173 173 173 177 186 192 190 183 182 181 179 183 186 182 181 183 182 179 177 174 173 170 169 172 173 181 183 183 190 188 182 183 188 190 189 191 185 174 171 167 162 162 152 132 119 119 153 157 148 157 169 108 139 144 142 138 130 124 124 123 121 120 117 112 111 112 113 115 106 99 94 81 66 50 40 43 49 51 50 46 41 35 30 28 32
173 175 174 177 186 193 189 183 182 179 178 180 181 179 177 181 182 178 175 169 166 169 167 171 177 181 183 182 182 179 177 181 187 190 188 182 174 167 164 158 148 148 139 120 123 139 146 141 139 183 222 129 132 142 139 138 137 132 130 127 128 126 121 118 114 112 110 104 99 101 104 93 76 56 43 48 55 57 54 47 41 35 30 25 25
173 177 178 179 185 192 187 183 184 181 179 178 178 178 175 178 181 178 174 167 167 171 168 174 179 178 181 182 180 179 178 181 186 186 181 174 166 161 159 152 142 141 145 137 150 180 185 174 171 198 218 136 142 150 141 138 136 132 132 130 133 130 123 124 120 114 102 93 93 89 93 90 75 56 48 52 52 54 55 50 45 37 28 23 20
176 176 179 181 183 188 183 180 183 182 181 180 179 177 175 177 177 174 170 166 167 171 171 174 174 175 183 184 181 182 181 182 184 182 177 170 162 158 150 144 144 150 167 164 162 179 189 185 183 200 195 136 152 158 148 141 134 132 136 132 132 130 124 123 120 123 120 113 106 91 82 79 72 60 52 49 46 44 47 50 46 36 29 26 19
177 176 178 181 182 184 182 180 181 183 181 181 181 176 176 176 169 168 168 167 167 167 168 171 172 177 183 182 180 181 181 178 179 179 173 166 160 154 144 146 162 170 178 176 159 162 174 177 175 188 175 142 160 163 156 147 133 124 130 134 133 127 124 124 123 135 142 136 128 111 96 83 73 67 60 53 43 33 34 45 43 25 27 31 21
173 175 178 181 182 182 184 183 183 186 184 182 181 177 177 175 168 169 169 169 170 164 163 168 173 175 177 178 178 177 177 172 172 173 166 160 157 152 150 159 172 178 191 199 179 166 178 180 176 190 182 158 160 161 161 157 136 120 122 128 128 127 130 134 131 135 142 141 139 124 110 102 84 75 74 64 45 18 13 33 38 28 27 27 24
170 174 177 181 185 186 186 185 185 188 187 185 182 179 179 177 174 175 172 172 175 168 163 165 169 170 171 176 175 172 169 163 165 169 164 157 156 160 170 176 179 184 196 204 197 180 180 174 172 188 188 169 164 163 164 162 146 141 140 127 119 126 135 143 139 131 131 133 129 120 115 118 110 100 97 63 23 357 350 6 19 22 27 31 34
172 174 177 179 185 188 188 189 188 189 189 188 185 182 182 180 179 177 172 170 173 170 163 163 166 163 163 169 170 166 165 161 158 160 158 153 156 168 179 185 191 187 178 181 187 189 184 178 180 188 178 161 162 167 170 179 171 153 142 134 149 140 139 170 155 139 148 157 154 143 129 125 130 116 100 64 23 8 353 352 356 360 13 23 23
176 178 179 179 183 187 190 192 192 191 191 189 187 185 183 181 180 177 173 169 166 165 162 161 165 159 155 159 159 161 166 168 168 171 171 169 171 174 174 181 190 189 184 184 189 192 188 183 188 195 185 166 162 167 179 198 180 161 145 151 169 148 181 207 166 151 179 182 178 174 159 141 135 121 100 84 53 26 355 349 355 349 355 8 7
179 181 182 182 182 186 190 194 194 193 192 191 189 185 181 179 176 173 169 162 156 158 157 156 160 158 155 154 156 162 163 161 173 188 197 200 199 192 179 178 188 194 190 182 181 181 179 178 180 188 197 189 176 169 170 180 179 180 183 159 156 171 206 172 156 158 196 187 163 175 184 176 144 124 105 30 326 346 334 310 332 342 342 353 356
182 184 183 183 183 185 189 193 195 195 194 193 190 185 182 179 175 168 161 154 151 155 157 156 158 159 158 158 160 165 160 156 170 184 192 199 203 200 191 189 199 200 193 175 172 173 177 185 186 186 193 195 186 177 170 169 172 183 195 166 154 172 162 157 151 154 204 201 159 153 178 170 155 144 123 320 314 337 345 305 270 330 335 338 349
183 183 182 182 184 184 188 193 195 193 193 195 193 188 184 181 178 171 163 160 155 156 161 161 161 163 164 163 163 163 158 158 167 174 179 186 191 186 184 194 191 187 187 179 176 174 174 179 182 182 175 174 183 179 171 173 172 170 176 157 129 138 159 162 165 153 160 204 200 191 189 155 156 163 160 209 300 342 14 12 338 8 2 346 348
180 180 181 183 184 184 188 193 194 192 192 194 194 191 187 182 180 174 169 167 162 159 162 162 163 166 165 166 166 163 160 160 164 166 172 177 172 165 166 176 174 176 181 179 180 180 174 170 169 172 167 163 169 164 158 166 171 158 151 147 129 130 145 146 165 172 148 176 206 206 199 191 187 177 168 196 270 11 39 51 54 45 21 4 354
179 180 181 182 183 184 188 192 192 192 192 191 192 192 189 184 181 177 171 168 164 163 164 162 165 166 165 166 167 164 163 164 162 160 165 164 157 159 162 167 171 179 185 181 183 185 181 173 166 165 158 151 151 150 143 139 145 148 146 148 137 128 120 103 116 140 111 124 179 202 200 204 221 204 188 203 214 46 41 41 45 38 1 356 356
180 180 180 180 181 183 187 189 190 191 192 193 192 191 189 185 183 180 172 166 165 165 165 164 167 168 168 169 167 165 163 162 158 153 158 161 157 160 165 166 170 180 185 185 187 187 186 181 172 168 157 146 144 143 137 125 123 130 137 141 130 118 111 84 72 82 81 91 128 193 202 200 215 219 211 217 217 52 11 3 348 305 303 339 350
179 178 179 180 180 181 185 187 189 190 191 194 194 191 189 187 185 182 175 169 167 167 166 166 167 169 172 172 171 168 162 159 159 155 155 159 162 167 169 165 168 176 182 187 187 180 177 175 169 165 157 149 146 143 136 127 121 118 118 120 112 102 97 82 68 74 79 80 96 95 223 217 233 251 234 227 228 264 298 310 313 294 286 329 342